Regional Weather Roundup
Issued by NWS

Home | Current Version | Previous Version | Graphics & Text | Print | Product List | Glossary On
Versions: 1 2 3 4 5 6 7 8 9 10 11 12 13 14 15 16 17 18 19 20 21 22 23 24 25 26 27 28 29 30 31 32 33 34 35 36 37 38 39 40 41 42 43 44 45 46 47 48 49
000
ASUS45 KBOU 020807
RWRCO

WEATHER ROUNDUP FOR COLORADO
NATIONAL WEATHER SERVICE DENVER/BOULDER CO
100 AM MST MON MAR 02 2015

NOTE: "FAIR" INDICATES FEW OR NO CLOUDS BELOW 12000 FEET WITH NO
SIGNIFICANT WEATHER AND/OR OBSTRUCTIONS TO VISIBILITY.

COZ001>005-013-030-031-020900-
...NORTHWEST COLORADO...

CITY           SKY/WX    TMP DP  RH WIND       PRES   REMARKS
CRAIG          CLOUDY    32  26  78 NE8       29.99F WCI  25
HAYDEN         CLOUDY    28  25  86 SE7       29.99F WCI  21
MEEKER         LGT SNOW  31  27  85 CALM      29.99F FOG
MOUNT WERNER   NOT AVBL
STEAMBOAT SPGS CLOUDY    26  25  95 CALM      29.99F
WALDEN         CLOUDY    27  23  86 CALM      29.99F
$$

COZ006>008-011-020900-
...WEST CENTRAL VALLEYS...

CITY           SKY/WX    TMP DP  RH WIND       PRES   REMARKS
GRAND JUNCTION CLOUDY    34  34 100 SE9       29.98F WCI  27
MONTROSE       CLOUDY    33  32  96 CALM      30.02F FOG
EAGLE          CLOUDY    32  30  93 CALM      30.03F
RIFLE          LGT SNOW  32  31  96 SW3       30.01F VSB 3/4
DELTA          CLOUDY    37  36  96 CALM      30.02F
NUCLA          DRIZZLE   34  32  93 SE5       30.04F WCI  30
$$

COZ017>023-064>068-020900-
...SOUTHWEST COLORADO...

CITY           SKY/WX    TMP DP  RH WIND       PRES   REMARKS
DURANGO        CLOUDY    34  33  96 NE5       30.09F WCI  30
CORTEZ         LGT RAIN  37  35  92 CALM      30.03F
PAGOSA SPRINGS MIX PCPN  35  35 100 CALM      30.12S
TELLURIDE      FLURRIES  35  32  87 CALM      30.07F
WOLF CREEK PAS CLOUDY    25  25 100 SW18G37   30.15F WCI  11
$$

COZ009-010-012-014-032>034-037-058>063-020900-
...CENTRAL COLORADO...

CITY           SKY/WX    TMP DP  RH WIND       PRES   REMARKS
ASPEN          LGT SNOW  29  27  92 SW5       29.98F FOG     WCI  24
BUENA VISTA    LGT SNOW  19  17  90 SE5       30.09F WCI  12
COPPER MTN     LGT SNOW  27  21  80 S18G25    30.03F WCI  13
BERTHOUD PASS  LGT SNOW  18  12  79 SW12G22   30.05F WCI   5
COTTONWOOD PAS LGT SNOW  25  21  86 CALM      30.05F
GUNNISON       MOCLDY    28  25  86 CALM      30.09F
KREMMLING      LGT SNOW  30  28  93 CALM      30.02F
LEADVILLE      LGT SNOW  20  19  96 S5        30.03F FOG     WCI  13
SALIDA         CLOUDY    21  17  84 SE6       30.18F WCI  13
SUNLIGHT       LGT SNOW  28  27  93 CALM        N/A  VSB 1
WILKERSON PASS CLOUDY    23  21  93 SW7       30.07F FOG     WCI  15
$$

COZ069>075-020900-
...SAN LUIS VALLEY/SANGRE DE CRISTO MOUNTAINS...

CITY           SKY/WX    TMP DP  RH WIND       PRES   REMARKS
ALAMOSA        PTCLDY    30  28  92 N3        30.09F
LA VETA PASS   CLOUDY    30  28  93 S14G25    30.12F WCI  20
SAGUACHE       MIX PCPN  32  30  93 CALM      30.09F
$$

COZ035-036-038>040-020900-
...NORTHERN COLORADO FRONT RANGE...

CITY           SKY/WX    TMP DP  RH WIND       PRES   REMARKS
DENVER INTL AP MOCLDY    18  15  88 E9        30.11F WCI   7
DMNS CITY PARK   N/A     21  16  81 W5        30.12F WCI  15
AURORA         PTCLDY    17  13  84 SE13      30.11F WCI   4
FRONT RANGE AP NOT AVBL
ERIE MUNI ARPT CLOUDY    22  19  85 N5        30.14F WCI  16
BOULDER MUN AP CLOUDY    23  19  86 CALM      30.13F
CENTENNIAL     PTCLDY    16  14  92 SW7       30.11F FOG     WCI   6
BROOMFIELD     CLOUDY    23  19  86 N9        30.12F WCI  13
FORT COLLINS   MOCLDY    23  19  86 CALM      30.16F
LONGMONT       CLOUDY    27  21  78 N3        30.16F
$$

COZ041-046-047-076>085-087-088-020900-
...PIKES PEAK/PALMER DIVIDE AND SOUTHERN FOOTHILLS...

CITY           SKY/WX    TMP DP  RH WIND       PRES   REMARKS
COLO. SPRINGS  CLOUDY    20  18  92 SE14      30.17F FOG     WCI   7
A. F. ACADEMY  CLOUDY    18  16  93 S13       30.12F WCI   4
ELLICOTT       NOT AVBL
FALCON         CLOUDY    18  17  95 S15       30.13F FOG     WCI   4
FORT CARSON    MOCLDY    18  16  92 S10       30.16F WCI   7
LIMON          CLOUDY    23  20  88 S13       30.19F WCI  11
MONUMENT HILL  MOCLDY    18  14  86 S16       30.07F WCI   3
TRINIDAD       CLOUDY    23  21  92 CALM      30.20F FOG
$$

COZ042>045-048>051-090-091-020900-
...NORTHEAST COLORADO...

CITY           SKY/WX    TMP DP  RH WIND       PRES   REMARKS
GREELEY ARPT   CLOUDY    27  16  63 E5        30.16F WCI  21
AKRON          PTCLDY    25  19  78 S9        30.20F WCI  15
BURLINGTON     CLOUDY    28  20  71 S12       30.27F WCI  18
WRAY           MOCLDY    30  21  68 S9        30.28F WCI  22
STERLING       CLOUDY    28  23  80 S7        30.21F WCI  21
HOLYOKE        NOT AVBL
FORT MORGAN    PTCLDY    25  20  81 SE6       30.20F WCI  18
$$

COZ086-089-092>099-020900-
...SOUTHEAST COLORADO...

CITY           SKY/WX    TMP DP  RH WIND       PRES   REMARKS
PUEBLO         CLOUDY    25  22  88 S5        30.23F FOG     WCI  19
LA JUNTA       CLOUDY    27  22  81 CALM      30.27F
LAMAR          MOCLDY    26  22  84 S6        30.29F WCI  19
SPRINGFIELD      N/A     24  20  84 S10       30.28F WCI  14
$$


USA.gov is the U.S. government's official web portal to all federal, state and local government web resources and services.